{"data":{"norad_id":61210,"epoch":"2026-09-21T08:15:49.594464Z","epoch_age_seconds":119318,"freshness":"FRESH","line1":"1 61210U 24171L   26264.34432401 -.00002349  00000+0 -14525-4 0  9996","line2":"2 61210  53.1596 292.1083 0001690 100.5625 259.5584 15.69714420115128","mean_motion":15.6971442,"eccentricity":0.000169,"inclination_deg":53.1596,"raan_deg":292.1083,"arg_perigee_deg":100.5625,"mean_anomaly_deg":259.5584,"bstar":-1.4525e-5,"rev_number":11512,"period_min":91.736431904601,"perigee_km":358.57540526509,"apogee_km":360.8527989376,"semimajor_km":6737.8511021013,"source":"CELESTRAK","updated_at":"2026-09-22T09:00:49.340850Z"}}